OPS 4682 DEB, 51507

Orbit data source: Space-Track

OPS 4682 DEB, 51507 is space debris in LEO originally from a launch on Sat, 03 Apr 1965 UTC launched from the Air Force Western Test Range (AFWTR). Debris objects in space refer to the collection of defunct objects orbiting the Earth. Examples of debris include non-operational satellites, rocket bodies, and fragments generated from explosions, collisions, or faulty payload assembly.

Loading next visibility...
Identifier
51507, 1965-027GT
Orbit
LEO
Country
Flag of USUS
Related business
Manufacturer
Unknown
Mission
Spacecraft
Bus & Motor
Unknown
Mass
Unknown
Launch date (UTC)
1965-04-03 (61 years ago)
Launch vehicle
Unknown
Launch site
Air Force Western Test Range (AFWTR)
Object type
Payload
Rocket body
Debris
Shape & HBR
Unknown shape, 1.1 m
Radar Cross Section
Medium (>0.1 m² and <1 m²)

Expand to show TLE details & history
Last TLE update: 3 weeks ago

TLE from 3 weeks ago
0 OPS 4682 DEB
1 51507U 65027GT  26245.81149463  .00001055  00000-0  33711-2 0  9991
2 51507  90.2548  15.1931 0037881  15.3826 344.8440 13.02055326333193
Epoch: 2026-09-02T19:28Z
TLE epoch observation values (Epoch: 2026-09-02T19:28:33.136Z)
Latitude
0.00005°
Longitude
101.09637°
Altitude
1,229.027 km
Speed
7.253 km/s
True Right ascension
01h 00m 46s
True Declination
0° 00' 00"
Sunlit
Object was in full shadow at epoch
Visualization orbit readout
Latitude
Unknown
Longitude
Unknown
Altitude
Unknown
Speed
Unknown
Apparent Right ascension
Unknown
Apparent Declination
Unknown
Sunlit
N/A
Visualization observer readout
Local Sidereal Time
06:09:57
Azimuth
Unknown
Elevation
Unknown
Doppler factor
Unknown
Orbital elements
Apogee altitude
1,280.069 km
Perigee altitude
1,222.268 km
Semi-major axis
7,629.305 km
Eccentricity
0.00379
Inclination
90.2548°
RAAN
15.1931°
Arg. of periapsis
15.3826°
True anomaly
344.72999°
Mean anomaly
344.844°
Eccentric anomaly
344.78705°
Mean motion
3.25698 °/min
Orbital period
110.53 mins
BSTAR
0.0033711
Loading maneuver chart data...
Computing Atmospheric mass density...
Loading historical data...
Loading historical data...
Loading historical data...
Loading historical data...
Loading historical data...
Loading historical data...
Loading historical data...

Documentation

Showing up to 5 results
|